SB KEPS @ AMSAT $ORB26198.1 2Line Orbital Elements 26198.AMSAT QST de KW1CDR AMSAT Orbital Elements for Amateur Satellites in TLE Format From Orbital Analysis Office New England Sci-Tech STEM Education Center West Townsend, MA July 17, 2026 To all radio amateurs These element sets describe the orbits of various satellites in use by the amateur radio community. For details see: www.amsat.org/keplerian-elements-formats/ A daily update of element sets is available at: www.amsat.org/tle/daily-bulletin.txt or without bulletin text: www.amsat.org/tle/dailytle.txt AO-07 1 07530U 74089B 26197.27011873 -.00000039 00000-0 45074-4 0 9994 2 07530 101.9906 210.8198 0012657 76.3529 349.4249 12.53698595364163 UO-11 1 14781U 84021B 26197.41797553 .00000486 00000-0 54959-4 0 9996 2 14781 97.8077 162.6705 0009254 88.1035 272.1243 14.90850498261483 AO-27 1 22825U 93061C 26197.15803350 .00000039 00000-0 31913-4 0 9991 2 22825 98.6867 264.5590 0008709 23.1959 336.9615 14.30949207711145 FO-29 1 24278U 96046B 26197.51458190 -.00000009 00000-0 25869-4 0 9990 2 24278 98.5219 42.3665 0350299 20.5227 340.9595 13.53275767477134 GO-32 1 25397U 98043D 26197.49615008 .00000006 00000-0 22628-4 0 9998 2 25397 99.0086 190.9963 0002222 112.7414 247.3999 14.24433518455502 ISS 1 25544U 98067A 26197.34703595 .00003465 00000-0 70975-4 0 9991 2 25544 51.6312 155.7848 0006753 302.1556 57.8777 15.49022210576275 NO-44 1 26931U 01043C 26197.28474308 .00000016 00000-0 37045-4 0 9990 2 26931 67.0495 169.0114 0005912 266.7089 93.3336 14.31965226294619 SO-50 1 27607U 02058C 26197.55521719 .00000354 00000-0 59872-4 0 9994 2 27607 64.5519 38.1171 0074483 257.0171 102.2611 14.83099820268816 CO-55 1 27844U 03031E 26197.47091366 .00000129 00000-0 74881-4 0 9997 2 27844 98.6744 205.6621 0010849 99.3803 260.8604 14.24352009195844 RS-22 1 27939U 03042A 26197.62080562 .00000261 00000-0 48379-4 0 9997 2 27939 98.3468 22.8125 0011342 168.7838 279.6921 14.73514844219887 CO-65 1 32785U 08021C 26197.61287230 .00002406 00000-0 15344-3 0 9992 2 32785 97.8297 179.6522 0006915 293.8449 66.2054 15.09708646989635 CO-66 1 32791U 08021J 26197.50387268 .00010519 00000-0 32533-3 0 9992 2 32791 97.7523 196.8243 0003211 153.5241 206.6165 15.33693982991787 RS-30 1 32953U 08025A 26197.63391708 -.00000019 00000-0 -20754-3 0 9992 2 32953 82.5062 337.1213 0018633 245.6137 114.2999 12.43180523823351 SRMSAT 1 37841U 11058D 26197.50190566 .00000328 00000-0 34086-4 0 9993 2 37841 19.9708 242.0370 0011714 165.5426 335.9764 14.11581255761969 ZACUBE-1 1 39417U 13066B 26197.46763023 .00001130 00000-0 90932-4 0 9998 2 39417 97.8007 159.9484 0044077 151.1384 209.2292 15.01331708685129 Delfi-N3xt 1 39428U 13066N 26197.35566984 .00002525 00000-0 22147-3 0 9996 2 39428 97.8325 117.6430 0075677 109.0698 251.8738 14.95365184678987 GOMX-1 1 39430U 13066Q 26197.60108436 .00000649 00000-0 10433-3 0 9991 2 39430 97.6463 36.2075 0128126 343.6834 16.0265 14.69544590674239 LO-74 1 39440U 13066AA 26197.40077608 .00002037 00000-0 19133-3 0 9995 2 39440 97.8916 146.5092 0055573 291.2614 68.2676 14.93971621681350 AO-73 1 39444U 13066AE 26197.48559538 .00003947 00000-0 24422-3 0 9992 2 39444 97.8291 169.5530 0037986 103.5264 257.0201 15.09827473684084 DTUSAT-2 1 40030U 14033W 26195.97454294 .00003349 00000-0 18144-3 0 9995 2 40030 98.0873 195.4742 0009313 132.4073 227.7947 15.15350472656897 LILACSAT-2 1 40908U 15049K 26197.60976079 .00011192 00000-0 18482-3 0 9999 2 40908 97.4621 235.5839 0008485 137.3533 222.8380 15.52392101600311 Horyu-4 1 41340U 16012D 26182.79199294 .04204222 -38650-5 11151-2 0 9996 2 41340 30.9791 330.1929 0008660 346.1826 13.8606 16.27112331573163 Lapan A3 1 41603U 16040E 26197.62588426 .00001714 00000-0 55575-4 0 9995 2 41603 97.1506 192.8099 0008243 269.8538 90.1760 15.33282837559329 CAS-2T 1 41847U 16066G 26197.18998331 .00000484 00000-0 76375-4 0 9998 2 41847 98.3813 272.5943 0342197 41.7454 320.9311 14.44771379508987 TechnoSat 1 42829U 17042E 26197.43622444 .00001542 00000-0 11220-3 0 9994 2 42829 97.4319 353.9887 0017314 359.5045 0.6162 15.05115320491103 AO-91 1 43017U 17073E 26197.57399529 .00004454 00000-0 19535-3 0 9990 2 43017 97.4661 64.1900 0148312 226.6684 132.2108 15.13073089469837 S-Net D 1 43186U 18014G 26197.29068167 .00002472 00000-0 12879-3 0 9995 2 43186 97.5332 101.9008 0006197 280.1842 79.8692 15.16922878463171 S-Net B 1 43187U 18014H 26197.30270701 .00002313 00000-0 12085-3 0 9990 2 43187 97.5337 101.9001 0006806 273.9137 86.1318 15.16892600463179 S-Net A 1 43188U 18014J 26197.28939879 .00002460 00000-0 12816-3 0 9991 2 43188 97.5346 102.1015 0006694 275.0642 84.9827 15.16931083463177 S-Net C 1 43189U 18014K 26197.30673957 .00002237 00000-0 11698-3 0 9996 2 43189 97.5365 102.1976 0008049 265.5764 94.4549 15.16883754461727 Ten-Koh 1 43677U 18084G 26197.48329192 .00001551 00000-0 11998-3 0 9994 2 43677 98.0762 31.0792 0009811 26.6983 333.4744 15.03050581420569 PO-101 1 43678U 18084H 26197.57795584 .00001100 00000-0 92242-4 0 9999 2 43678 98.1210 35.0731 0012752 80.2675 279.9987 15.00566575420620 QO-100 1 43700U 18090A 26197.56017734 .00000133 00000-0 00000-0 0 9997 2 43700 0.0155 59.3194 0002257 99.5849 2.9240 1.00271679 27973 MinXSS-2 1 43758U 18099A 26197.18236202 .00023169 00000-0 43069-3 0 9999 2 43758 97.4528 274.3566 0008543 157.2726 202.8905 15.48867095418616 AO-95 1 43770U 18099N 26197.43481706 .00005883 00000-0 22273-3 0 9999 2 43770 97.4366 257.5826 0007352 234.6280 125.4273 15.27288246417680 SNUSat 2 1 43782U 18099AA 26197.58879090 .00004292 00000-0 18941-3 0 9995 2 43782 97.4040 250.5263 0010376 182.8234 177.2946 15.22252611417508 SnugLite 1 43784U 18099AC 26197.42618122 .00006265 00000-0 23364-3 0 9994 2 43784 97.3848 251.4276 0003768 156.4986 203.6426 15.27773640417789 ITASat 1 1 43786U 18099AE 26197.59490558 .00003153 00000-0 15200-3 0 9998 2 43786 97.4010 248.5237 0010937 244.9226 115.0874 15.19391697417370 EAGLET 1 1 43790U 18099AJ 26197.61463068 .00002327 00000-0 13483-3 0 9995 2 43790 97.4214 246.5050 0009694 238.5394 121.4890 15.13140175416785 ESEO 1 43792U 18099AL 26197.04936904 .00001353 00000-0 10118-3 0 9998 2 43792 97.3959 233.2003 0010957 230.3993 129.6267 15.04324567416149 JO-97 1 43803U 18099AX 26197.44757069 .00009397 00000-0 28296-3 0 9990 2 43803 97.4111 260.3993 0006984 154.4800 205.6789 15.34543240418117 Suomi 100 1 43804U 18099AY 26197.59558978 .00007254 00000-0 25943-3 0 9991 2 43804 97.4168 257.8899 0010672 167.5416 192.6090 15.29052660417915 ISAT 1 43879U 18111D 26197.26059833 .00075731 00000-0 60044-3 0 9994 2 43879 97.5857 134.8449 0007847 136.7570 223.4309 15.71028539415725 UWE-4 1 43880U 18111E 26196.35233479 .00020350 00000-0 39289-3 0 9999 2 43880 97.5850 126.0767 0006289 193.5981 166.5100 15.47824446415137 Sparrow 1 43881U 18111F 26197.39838897 .00224169 00000-0 91534-3 0 9995 2 43881 97.6097 141.2513 0008443 139.7231 220.4666 15.85493486415982 Prox-1 1 44339U 19036A 26197.50475387 .00006286 00000-0 58815-3 0 9998 2 44339 23.9947 278.3086 0006118 22.5561 337.5207 14.91263437377857 Taurus 1 1 44530U 19059C 26197.60309839 .00001273 00000-0 20989-3 0 9997 2 44530 98.6434 4.2651 0008140 211.2755 148.7967 14.72374101362975 TO-108 1 44881U 19093C 26197.59450785 -.00000129 00000-0 -85155-5 0 9998 2 44881 97.7525 269.1082 0013492 357.0322 3.0811 14.86560063355781 RS-44 1 44909U 19096E 26197.40108337 .00000014 00000-0 25258-5 0 9994 2 44909 82.5242 320.2932 0218525 76.1855 286.3458 12.79748917306085 SALSAT 1 46495U 20068K 26197.24901140 .00003822 00000-0 13369-3 0 9990 2 46495 97.8856 202.0925 0009321 188.9749 171.1325 15.30180346319806 CSS (TIANHE-1) 1 48274U 21035A 26197.56097431 .00001173 00000-0 19394-4 0 9998 2 48274 41.4698 143.5547 0002176 301.3971 58.6654 15.58128282297754 CUTE 1 49263U 21088D 26197.47159809 .06329166 25128-5 88271-3 0 9996 2 49263 97.3920 300.0161 0014134 280.3829 79.5875 16.34776759267249 TeikyoSat 4 1 49396U 21102B 26197.35305817 .00001081 00000-0 70976-4 0 9997 2 49396 97.3663 225.7028 0011845 184.4930 175.6195 15.09601060257120 Z-Sat 1 49399U 21102E 26197.59039743 .00001818 00000-0 91117-4 0 9996 2 49399 97.3305 232.0221 0017686 139.7189 220.5359 15.18467954257900 KOSEN 1 1 49402U 21102H 26197.17081618 .00003905 00000-0 14863-3 0 9994 2 49402 97.3169 238.7695 0015415 104.6457 255.6493 15.27221753258441 HO-113 1 50466U 21131B 26197.62690409 .00000410 00000-0 14022-3 0 9997 2 50466 98.4994 289.8579 0004512 27.1032 333.0392 14.41383076239353 SNUGLITE 2 1 52899U 22065F 26197.34428327 .00000400 00000-0 84841-4 0 9999 2 52899 98.2237 342.1293 0006212 296.1987 63.8576 14.64395222215262 UmKA 1 (RS40S) 1 57172U 23091G 26197.56732087 .00003044 00000-0 13969-3 0 9992 2 57172 97.5034 256.1549 0012912 24.9873 335.1985 15.21129782168470 CubeBel-2 (EU11S) 1 57175U 23091K 26197.62374391 .00006724 00000-0 23509-3 0 9991 2 57175 97.5033 261.1156 0009387 21.6758 338.4877 15.29843884168807 RS-38S 1 57189U 23091Z 26197.58437784 .00009366 00000-0 26178-3 0 9997 2 57189 97.5077 267.6755 0005536 333.6471 26.4490 15.36900981169206 SONATE-2 1 59112U 24043Q 26197.39148124 .00025973 00000-0 31139-3 0 9994 2 59112 97.5560 349.6331 0006825 102.5027 257.6993 15.60890345132445 GRBBeta 1 60237U 24128C 26197.35397727 .00001619 00000-0 12123-3 0 9992 2 60237 61.9898 113.9204 0036897 140.9185 219.4584 15.06812637110668 Curium One 1 60242U 24128H 26197.45344989 .00003395 00000-0 20198-3 0 9995 2 60242 61.9785 102.0888 0036235 136.7950 223.5999 15.12874815110888 ROBUSTA-3A 1 60243U 24128J 26197.30273769 .00003645 00000-0 22081-3 0 9998 2 60243 61.9865 105.2566 0037973 133.9468 226.4772 15.11995770110827 CatSat 1 60246U 24125J 26197.12420885 .00047309 00000-0 52988-3 0 9995 2 60246 97.2052 50.0752 0020293 79.9538 280.4009 15.62305427111901 HYPERVIEW-1G (RS66S) 1 61772U 24199AP 26197.44027781 .00181228 00000-0 73436-3 0 9994 2 61772 97.2783 78.8351 0008338 145.1551 215.0267 15.85759155139295 AO-123 1 61781U 24199AY 26197.61349262 .00004352 00000-0 12588-3 0 9997 2 61781 97.2957 66.0211 0013160 195.3697 164.7150 15.36066366138447 JINJUSat 1B 1 63210U 25052A 26197.23986777 .00008759 00000-0 26552-3 0 9992 2 63210 97.3966 94.0471 0003067 25.9845 334.1551 15.34371285 74550 NUSHSAT 1 1 63211U 25052B 26197.23470822 .00010883 00000-0 30218-3 0 9997 2 63211 97.3945 94.7124 0003030 37.3334 322.8120 15.37066354 74603 TEVEL2-4 1 63213U 25052D 26197.25407118 .00010509 00000-0 30596-3 0 9993 2 63213 97.3866 93.7088 0003465 49.2372 310.9172 15.35589805 74571 TEVEL2-5 1 63214U 25052E 26197.40831625 .00009886 00000-0 28970-3 0 9994 2 63214 97.3863 93.8029 0003486 50.7727 309.3826 15.35404371 74593 TEVEL2-6 1 63215U 25052F 26196.50888836 .00011734 00000-0 34392-3 0 9991 2 63215 97.3871 92.8865 0003622 54.7007 305.4575 15.35351129 74452 TEVEL2-1 1 63217U 25052H 26197.20007266 .00009654 00000-0 28846-3 0 9996 2 63217 97.3839 93.1679 0004199 58.1893 301.9759 15.34794260 74547 TEVEL2-3 1 63218U 25052J 26197.25878627 .00009726 00000-0 29000-3 0 9992 2 63218 97.3845 93.2526 0003910 60.0682 300.0950 15.34858117 74551 TEVEL2-2 1 63219U 25052K 26197.26539011 .00009606 00000-0 28692-3 0 9998 2 63219 97.3837 93.2363 0004225 58.4463 301.7192 15.34806241 74557 TEVEL2-9 1 63237U 25052AD 26197.28109239 .00008804 00000-0 28055-3 0 9997 2 63237 97.3902 92.5623 0007595 54.2294 305.9653 15.32752256 74484 TEVEL2-7 1 63238U 25052AE 26197.19720289 .00008651 00000-0 27848-3 0 9991 2 63238 97.3901 92.3819 0007674 54.1249 306.0705 15.32434040 74462 TEVEL2-8 1 63239U 25052AF 26197.27103315 .00008714 00000-0 28060-3 0 9993 2 63239 97.3905 92.4323 0007735 55.0329 305.1638 15.32420655 74478 HYDRA-W HYDRA-W 1 63490U 25052BL 26112.26439385 .02130398 41366-2 26477-2 0 9994 2 63490 97.3739 16.4004 0007524 180.8298 179.2974 16.08789288 62061 HADES-ICM (SO-125) 1 63492U 25052BN 26141.26653985 .06534464 24594-5 20838-2 0 9990 2 63492 97.3646 46.2798 0012126 212.7126 147.3417 16.26141574 66567 SPIRONE 1 66657U 25274H 26197.33014734 .00000859 00000-0 86664-4 0 9996 2 66657 97.7473 126.2064 0010401 279.0753 80.9290 14.93654192 34570 K-HERO 1 66660U 25274L 26197.25971823 .00000643 00000-0 65555-4 0 9999 2 66660 97.7480 126.3195 0012332 283.9681 76.0168 14.94062120 34572 SNUGLITE-III DURI 1 66661U 25274M 26197.51471761 .00000438 00000-0 46302-4 0 9996 2 66661 97.7478 126.5918 0012958 284.1822 75.7958 14.94092783 34615 SilverSat SilverSat 1 66909U 98067XV 26113.44966717 .07226154 12288-4 11979-2 0 9998 2 66909 51.6027 190.0749 0007952 333.4666 26.5949 16.32457272 22308 SAKHACUBE-CHOLBON 1 67290U 25313AU 26197.48778032 .00005068 00000-0 20356-3 0 9990 2 67290 97.3924 272.1645 0007820 245.3272 114.7153 15.25373181 30448 RS95S (QMR-KWT-2) 1 67291U 25313AV 26197.18480658 .00006742 00000-0 25706-3 0 9996 2 67291 97.3921 272.1056 0007559 242.6037 117.4433 15.26990347 30418 Ten-Koh2 1 68261U 25241B 26197.32656999 .00002120 00000-0 99574-4 0 9994 2 68261 51.6581 180.9195 0004559 234.1196 125.9359 15.24178113 19358 JACK-002 1 68417U 26067B 26197.59646000 .00003210 00000-0 15346-3 0 9990 2 68417 97.4586 155.8333 0003130 131.8881 228.2622 15.19723876 16417 DISCO 2 1 68431U 26067R 26197.35958087 .00004178 00000-0 20017-3 0 9996 2 68431 97.4618 155.5885 0000772 164.2873 195.8386 15.19479497 16376 HADES-SA (SpinnyONE) 1 68446U 26067AG 26197.32774490 .00008740 00000-0 40859-3 0 9998 2 68446 97.4418 155.2096 0005847 0.5191 359.6049 15.20003401 16358 PARUS-6U1 1 68456U 26067AS 26197.39654761 .00002639 00000-0 13385-3 0 9999 2 68456 97.4571 155.3193 0004578 343.7005 16.4081 15.17800673 16361 SAL-E 1 68458U 26067AU 26197.32037144 .00003627 00000-0 18089-3 0 9998 2 68458 97.4496 155.1644 0005128 355.5367 4.5820 15.18147509 16353 IO-86 1 40931U 15052B 25151.18580782 .00001310 00000-0 87238-4 0 9990 2 40931 6.0001 24.1284 0012872 339.0660 20.8941 14.78806187523042 LILIUM-4 LILIUM-4 1 71922C 26067AC 26089.50133053 -.00014632 00000+0 -74472-3 0 04 2 71922 97.4497 49.1617 0004341 5.9603 355.7042 15.16896692 16